,,,PA_Meas_PMT16A,,PR_Meas_QMR101_102,,RH_Meas_QMH101,,SR_Meas_QMS101,,TA_Meas_QMH101,,GenWind,,GenWind,
date,time,status,PA,status,PR,status,RH,status,SR,status,TA,status,DirAvg,status,SpdAvg,
2009-04-15, 00:00:04,VALID,1000.13,VALID,0,VALID,91.2426,VALID,0,VALID,23.8201,VALID,117,VALID,0.692578,
2009-04-15, 00:01:04,VALID,1000.15,VALID,0,VALID,91.4791,VALID,0,VALID,23.8201,VALID,117,VALID,0.553906,
2009-04-15, 00:02:04,VALID,1000.12,VALID,0,VALID,91.6699,VALID,0,VALID,23.7811,VALID,123,VALID,0.513281,
2009-04-15, 00:03:04,VALID,1000.11,VALID,0,VALID,91.8454,VALID,0,VALID,23.7402,VALID,130,VALID,0.423047,
2009-04-15, 00:04:04,VALID,1000.11,VALID,0,VALID,91.9369,VALID,0,VALID,23.7438,VALID,130,VALID,0.588672,
2009-04-15, 00:05:04,VALID,1000.12,VALID,0,VALID,91.9751,VALID,0,VALID,23.7225,VALID,145,VALID,0.75625,
2009-04-15, 00:06:04,VALID,1000.12,VALID,0,VALID,92.0666,VALID,0,VALID,23.703,VALID,144,VALID,0.871094,
2009-04-15, 00:07:04,VALID,1000.09,VALID,0,VALID,92.0437,VALID,0,VALID,23.7438,VALID,135,VALID,0.815234,
2009-04-15, 00:08:04,VALID,1000.09,VALID,0,VALID,92.059,VALID,0,VALID,23.7012,VALID,134,VALID,0.678125,
2009-04-15, 00:09:04,VALID,1000.07,VALID,0,VALID,92.0361,VALID,0,VALID,23.742,VALID,135,VALID,0.529297,
2009-04-15, 00:10:04,VALID,1000.05,VALID,0,VALID,91.8683,VALID,0,VALID,23.7225,VALID,138,VALID,0.935156,
2009-04-15, 00:11:04,VALID,1000.05,VALID,0,VALID,91.7385,VALID,0,VALID,23.7225,VALID,135,VALID,0.701172,
2009-04-15, 00:12:04,VALID,1000.04,VALID,0,VALID,91.5402,VALID,0,VALID,23.7225,VALID,133,VALID,0.729688,
2009-04-15, 00:13:04,VALID,1000.05,VALID,0,VALID,91.3647,VALID,0,VALID,23.7634,VALID,132,VALID,0.720703,
2009-04-15, 00:14:04,VALID,1000.03,VALID,0,VALID,91.4181,VALID,0,VALID,23.7616,VALID,131,VALID,0.530859,
2009-04-15, 00:15:04,VALID,1000.07,VALID,0,VALID,91.5402,VALID,0,VALID,23.7811,VALID,121,VALID,0.473828,
2009-04-15, 00:16:04,VALID,1000.07,VALID,0,VALID,91.6317,VALID,0,VALID,23.7811,VALID,116,VALID,0.574609,
2009-04-15, 00:17:04,VALID,1000.08,VALID,0,VALID,91.6317,VALID,0,VALID,23.7616,VALID,116,VALID,0.367188,
2009-04-15, 00:18:04,VALID,1000.06,VALID,0,VALID,91.5326,VALID,0,VALID,23.7616,VALID,116,VALID,0.55625,
2009-04-15, 00:19:04,VALID,1000.08,VALID,0,VALID,91.6623,VALID,0,VALID,23.7616,VALID,116,VALID,0.398438,
2009-04-15, 00:20:04,VALID,1000.09,VALID,0,VALID,91.708,VALID,0,VALID,23.742,VALID,116,VALID,0.139844,
2009-04-15, 00:21:04,VALID,1000.1,VALID,0,VALID,91.7996,VALID,0,VALID,23.742,VALID,116,VALID,0.134766,
2009-04-15, 00:22:04,VALID,1000.09,VALID,0,VALID,91.9293,VALID,0,VALID,23.742,VALID,116,VALID,0.0488281,
2009-04-15, 00:23:04,VALID,1000.08,VALID,0,VALID,91.998,VALID,0,VALID,23.7225,VALID,113,VALID,0.300781,
2009-04-15, 00:24:04,VALID,1000.08,VALID,0,VALID,92.1048,VALID,0,VALID,23.6817,VALID,111,VALID,0.271094,
2009-04-15, 00:25:04,VALID,1000.09,VALID,0,VALID,92.2421,VALID,0,VALID,23.6835,VALID,111,VALID,0,
2009-04-15, 00:26:04,VALID,1000.07,VALID,0,VALID,92.3413,VALID,0,VALID,23.6835,VALID,34,VALID,0.450391,
2009-04-15, 00:27:04,VALID,1000.08,VALID,0,VALID,92.4405,VALID,0,VALID,23.6427,VALID,360,VALID,0.772266,
2009-04-15, 00:28:04,VALID,1000.07,VALID,0,VALID,92.5626,VALID,0,VALID,23.6445,VALID,360,VALID,0.782422,
2009-04-15, 00:29:04,VALID,1000.04,VALID,0,VALID,92.6617,VALID,0,VALID,23.6445,VALID,360,VALID,0.752344,
2009-04-15, 00:30:04,VALID,1000.04,VALID,0,VALID,92.8525,VALID,0,VALID,23.6445,VALID,360,VALID,0.859375,
2009-04-15, 00:31:04,VALID,1000.04,VALID,0,VALID,92.3413,VALID,0,VALID,23.625,VALID,3,VALID,0.900781,
2009-04-15, 00:32:04,VALID,1000.01,VALID,0,VALID,91.8759,VALID,0,VALID,23.6445,VALID,4,VALID,0.740625,
2009-04-15, 00:33:04,VALID,999.979,VALID,0,VALID,91.7385,VALID,0,VALID,23.664,VALID,21,VALID,0.916406,
2009-04-15, 00:34:04,VALID,999.998,VALID,0,VALID,91.9217,VALID,0,VALID,23.703,VALID,32,VALID,0.944531,
2009-04-15, 00:35:04,VALID,999.957,VALID,0,VALID,91.998,VALID,0,VALID,23.703,VALID,32,VALID,0.766406,
2009-04-15, 00:36:04,VALID,999.964,VALID,0,VALID,92.1658,VALID,0,VALID,23.703,VALID,30,VALID,0.540234,
2009-04-15, 00:37:04,VALID,999.941,VALID,0,VALID,92.2574,VALID,0,VALID,23.703,VALID,22,VALID,0.605078,
2009-04-15, 00:38:04,VALID,999.927,VALID,0,VALID,92.326,VALID,0,VALID,23.6835,VALID,16,VALID,0.561719,
2009-04-15, 00:39:04,VALID,999.93,VALID,0,VALID,92.3031,VALID,0,VALID,23.6835,VALID,359,VALID,0.729297,
2009-04-15, 00:40:04,VALID,999.91,VALID,0,VALID,92.3947,VALID,0,VALID,23.6817,VALID,359,VALID,0.778906,
2009-04-15, 00:41:04,VALID,999.906,VALID,0,VALID,92.4252,VALID,0,VALID,23.6835,VALID,359,VALID,0.664063,
2009-04-15, 00:42:04,VALID,999.887,VALID,0,VALID,92.41,VALID,0,VALID,23.6622,VALID,359,VALID,0.648047,
2009-04-15, 00:43:04,VALID,999.878,VALID,0,VALID,92.4786,VALID,0,VALID,23.6622,VALID,356,VALID,0.322266,
2009-04-15, 00:44:04,VALID,999.852,VALID,0,VALID,92.4252,VALID,0,VALID,23.6622,VALID,356,VALID,0.174609,
2009-04-15, 00:45:04,VALID,999.808,VALID,0,VALID,92.4176,VALID,0,VALID,23.6427,VALID,3,VALID,0.544141,
2009-04-15, 00:46:04,VALID,999.775,VALID,0,VALID,92.5168,VALID,0,VALID,23.664,VALID,67,VALID,0.8125,
2009-04-15, 00:47:04,VALID,999.762,VALID,0,VALID,92.4328,VALID,0,VALID,23.6835,VALID,67,VALID,0.928125,
2009-04-15, 00:48:04,VALID,999.73,VALID,0,VALID,92.4786,VALID,0,VALID,23.6835,VALID,67,VALID,0.753125,
2009-04-15, 00:49:04,VALID,999.77,VALID,0,VALID,92.5702,VALID,0,VALID,23.6835,VALID,65,VALID,0.633203,
2009-04-15, 00:50:04,VALID,999.763,VALID,0,VALID,92.7075,VALID,0,VALID,23.703,VALID,61,VALID,0.566016,
2009-04-15, 00:51:04,VALID,999.77,VALID,0,VALID,92.7228,VALID,0,VALID,23.6835,VALID,61,VALID,0.719531,
2009-04-15, 00:52:04,VALID,999.727,VALID,0,VALID,92.7457,VALID,0,VALID,23.703,VALID,61,VALID,0.728516,
2009-04-15, 00:53:04,VALID,999.689,VALID,0,VALID,92.7533,VALID,0,VALID,23.6835,VALID,61,VALID,0.822266,
2009-04-15, 00:54:04,VALID,999.668,VALID,0,VALID,92.8296,VALID,0,VALID,23.6835,VALID,61,VALID,0.879687,
2009-04-15, 00:55:04,VALID,999.629,VALID,0,VALID,92.8067,VALID,0,VALID,23.6622,VALID,58,VALID,0.719141,
2009-04-15, 00:56:04,VALID,999.604,VALID,0,VALID,92.8448,VALID,0,VALID,23.6835,VALID,42,VALID,0.523047,
2009-04-15, 00:57:05,VALID,999.602,VALID,0,VALID,92.9974,VALID,0,VALID,23.6622,VALID,6,VALID,0.614453,
2009-04-15, 00:58:05,VALID,999.546,VALID,0,VALID,93.0127,VALID,0,VALID,23.664,VALID,316,VALID,0.766797,
2009-04-15, 00:59:05,VALID,999.523,VALID,0,VALID,93.0432,VALID,0,VALID,23.6445,VALID,293,VALID,0.638672,
2009-04-15, 01:00:05,VALID,999.504,VALID,0,VALID,93.0432,VALID,0,VALID,23.6232,VALID,293,VALID,0.2625,
2009-04-15, 01:01:05,VALID,999.46,VALID,0,VALID,93.089,VALID,0,VALID,23.625,VALID,293,VALID,0.328906,
2009-04-15, 01:02:05,VALID,999.434,VALID,0,VALID,93.0661,VALID,0,VALID,23.5841,VALID,285,VALID,0.628125,
2009-04-15, 01:03:05,VALID,999.423,VALID,0,VALID,93.0127,VALID,0,VALID,23.6054,VALID,285,VALID,0.608984,
2009-04-15, 01:04:05,VALID,999.371,VALID,0,VALID,92.9745,VALID,0,VALID,23.5859,VALID,285,VALID,0.138672,
2009-04-15, 01:05:05,VALID,999.278,VALID,0,VALID,92.9822,VALID,0,VALID,23.5646,VALID,285,VALID,0.0445312,
2009-04-15, 01:06:05,VALID,999.295,VALID,0,VALID,92.9135,VALID,0,VALID,23.5664,VALID,285,VALID,0.112891,
2009-04-15, 01:07:05,VALID,999.3,VALID,0,VALID,92.9059,VALID,0,VALID,23.5469,VALID,285,VALID,0,
2009-04-15, 01:08:05,VALID,999.243,VALID,0,VALID,92.9288,VALID,0,VALID,23.5469,VALID,284,VALID,0,
2009-04-15, 01:09:05,VALID,999.23,VALID,0,VALID,93.0203,VALID,0,VALID,23.5469,VALID,194,VALID,0.411328,
2009-04-15, 01:10:05,VALID,999.199,VALID,0,VALID,93.089,VALID,0,VALID,23.5469,VALID,183,VALID,0.480078,
2009-04-15, 01:11:05,VALID,999.189,VALID,0,VALID,93.0356,VALID,0,VALID,23.5061,VALID,168,VALID,0.316016,
2009-04-15, 01:12:05,VALID,999.209,VALID,0,VALID,93.028,VALID,0,VALID,23.5469,VALID,168,VALID,0.0996094,
2009-04-15, 01:13:05,VALID,999.165,VALID,0,VALID,93.1043,VALID,0,VALID,23.5061,VALID,134,VALID,0.549219,
2009-04-15, 01:14:05,VALID,999.16,VALID,0,VALID,93.1882,VALID,0,VALID,23.5469,VALID,134,VALID,0.504687,
2009-04-15, 01:15:05,VALID,999.14,VALID,0,VALID,93.2263,VALID,0,VALID,23.5256,VALID,134,VALID,0.44375,
2009-04-15, 01:16:05,VALID,999.118,VALID,0,VALID,93.2721,VALID,0,VALID,23.5451,VALID,125,VALID,0.695703,
2009-04-15, 01:17:05,VALID,999.131,VALID,0,VALID,93.3026,VALID,0,VALID,23.5469,VALID,112,VALID,0.655469,
2009-04-15, 01:18:05,VALID,999.115,VALID,0,VALID,93.3179,VALID,0,VALID,23.5274,VALID,112,VALID,0.425391,
2009-04-15, 01:19:05,VALID,999.133,VALID,0,VALID,93.4094,VALID,0,VALID,23.5256,VALID,112,VALID,0.287109,
2009-04-15, 01:20:05,VALID,999.153,VALID,0,VALID,93.4247,VALID,0,VALID,23.5274,VALID,112,VALID,0.0234375,
2009-04-15, 01:21:05,VALID,999.183,VALID,0,VALID,93.4247,VALID,0,VALID,23.5274,VALID,112,VALID,0.208203,
2009-04-15, 01:22:05,VALID,999.241,VALID,0,VALID,93.5391,VALID,0,VALID,23.5079,VALID,112,VALID,0.0914062,
2009-04-15, 01:23:05,VALID,999.202,VALID,0,VALID,93.646,VALID,0,VALID,23.4884,VALID,92,VALID,1.03867,
2009-04-15, 01:24:05,VALID,999.233,VALID,0,VALID,93.7909,VALID,0,VALID,23.4671,VALID,94,VALID,1.35156,
2009-04-15, 01:25:05,VALID,999.25,VALID,0,VALID,93.8138,VALID,0,VALID,23.4884,VALID,78,VALID,0.916797,
2009-04-15, 01:26:05,VALID,999.304,VALID,0,VALID,93.8138,VALID,0,VALID,23.4688,VALID,27,VALID,0.932422,
2009-04-15, 01:27:05,VALID,999.299,VALID,0,VALID,93.7223,VALID,0,VALID,23.4298,VALID,7,VALID,1.15078,
2009-04-15, 01:28:05,VALID,999.292,VALID,0,VALID,93.7528,VALID,0,VALID,23.4298,VALID,7,VALID,1.07344,
2009-04-15, 01:29:05,VALID,999.293,VALID,0,VALID,93.7528,VALID,0,VALID,23.3908,VALID,8,VALID,0.921484,
2009-04-15, 01:30:05,VALID,999.331,VALID,0,VALID,93.7604,VALID,0,VALID,23.3908,VALID,6,VALID,0.753906,
2009-04-15, 01:31:05,VALID,999.351,VALID,0,VALID,93.7757,VALID,0,VALID,23.3908,VALID,7,VALID,0.936328,
2009-04-15, 01:32:05,VALID,999.391,VALID,0,VALID,93.8901,VALID,0,VALID,23.3908,VALID,8,VALID,1.02656,
2009-04-15, 01:33:05,VALID,999.403,VALID,0,VALID,93.9817,VALID,0,VALID,23.3908,VALID,21,VALID,1.09063,
2009-04-15, 01:34:05,VALID,999.43,VALID,0,VALID,94.0274,VALID,0,VALID,23.4298,VALID,32,VALID,1.16406,
2009-04-15, 01:35:05,VALID,999.438,VALID,0,VALID,93.974,VALID,0,VALID,23.4298,VALID,44,VALID,1.75039,
2009-04-15, 01:36:05,VALID,999.453,VALID,0,VALID,93.9664,VALID,0,VALID,23.4688,VALID,37,VALID,1.53242,
2009-04-15, 01:37:05,VALID,999.433,VALID,0,VALID,93.8367,VALID,0,VALID,23.4688,VALID,44,VALID,1.39922,
2009-04-15, 01:38:05,VALID,999.417,VALID,0,VALID,93.5239,VALID,0,VALID,23.4688,VALID,48,VALID,1.65469,
2009-04-15, 01:39:05,VALID,999.44,VALID,0,VALID,93.2797,VALID,0,VALID,23.4866,VALID,53,VALID,1.38984,
2009-04-15, 01:40:05,VALID,999.423,VALID,0,VALID,93.3789,VALID,0,VALID,23.5469,VALID,40,VALID,1.24961,
2009-04-15, 01:41:05,VALID,999.453,VALID,0,VALID,93.3331,VALID,0,VALID,23.5664,VALID,33,VALID,1.27188,
2009-04-15, 01:42:05,VALID,999.401,VALID,0,VALID,93.4094,VALID,0,VALID,23.5859,VALID,16,VALID,1.46133,
2009-04-15, 01:43:05,VALID,999.401,VALID,0,VALID,93.3713,VALID,0,VALID,23.5859,VALID,35,VALID,1.59414,
2009-04-15, 01:44:05,VALID,999.402,VALID,0,VALID,93.1577,VALID,0,VALID,23.5859,VALID,20,VALID,1.31016,
2009-04-15, 01:45:05,VALID,999.391,VALID,0,VALID,92.8143,VALID,0,VALID,23.6054,VALID,8,VALID,1.30781,
2009-04-15, 01:46:05,VALID,999.33,VALID,0,VALID,92.2726,VALID,0,VALID,23.6445,VALID,26,VALID,1.4875,
2009-04-15, 01:47:05,VALID,999.346,VALID,0,VALID,92.2116,VALID,0,VALID,23.6835,VALID,15,VALID,1.41875,
2009-04-15, 01:48:05,VALID,999.309,VALID,0,VALID,92.3108,VALID,0,VALID,23.7225,VALID,27,VALID,1.26836,
2009-04-15, 01:49:05,VALID,999.287,VALID,0,VALID,92.3489,VALID,0,VALID,23.7225,VALID,22,VALID,1.2418,
2009-04-15, 01:50:05,VALID,999.273,VALID,0,VALID,92.2955,VALID,0,VALID,23.7225,VALID,10,VALID,1.17266,
2009-04-15, 01:51:05,VALID,999.263,VALID,0,VALID,92.059,VALID,0,VALID,23.7225,VALID,1,VALID,1.40234,
2009-04-15, 01:52:05,VALID,999.246,VALID,0,VALID,91.8454,VALID,0,VALID,23.7811,VALID,18,VALID,0.839063,
2009-04-15, 01:53:05,VALID,999.24,VALID,0,VALID,91.5402,VALID,0,VALID,23.8396,VALID,2,VALID,1.39844,
2009-04-15, 01:54:05,VALID,999.236,VALID,0,VALID,91.2503,VALID,0,VALID,23.9177,VALID,1,VALID,0.785547,
2009-04-15, 01:55:05,VALID,999.24,VALID,0,VALID,91.0214,VALID,0,VALID,23.9744,VALID,350,VALID,0.866406,
2009-04-15, 01:56:05,VALID,999.265,VALID,0,VALID,90.5941,VALID,0,VALID,24.0543,VALID,313,VALID,0.902344,
2009-04-15, 01:57:05,VALID,999.272,VALID,0,VALID,90.4186,VALID,0,VALID,24.1324,VALID,313,VALID,1.07813,
2009-04-15, 01:58:05,VALID,999.264,VALID,0,VALID,90.4491,VALID,0,VALID,24.1714,VALID,318,VALID,0.675781,
2009-04-15, 01:59:05,VALID,999.255,VALID,0,VALID,90.2355,VALID,0,VALID,24.1696,VALID,325,VALID,0.279687,
2009-04-15, 02:00:05,VALID,999.301,VALID,0,VALID,90.1058,VALID,0,VALID,24.2104,VALID,302,VALID,0.552344,
2009-04-15, 02:01:05,VALID,999.294,VALID,0,VALID,89.9837,VALID,0,VALID,24.2299,VALID,300,VALID,0.822656,
2009-04-15, 02:02:05,VALID,999.338,VALID,0,VALID,90.1668,VALID,0,VALID,24.269,VALID,301,VALID,0.917578,
2009-04-15, 02:03:05,VALID,999.354,VALID,0,VALID,90.0066,VALID,0,VALID,24.2885,VALID,250,VALID,0.503516,
2009-04-15, 02:04:05,VALID,999.316,VALID,0,VALID,90.1897,VALID,0,VALID,24.2866,VALID,290,VALID,2.01914,
2009-04-15, 02:05:05,VALID,999.375,VALID,0,VALID,90.06,VALID,0,VALID,24.3666,VALID,292,VALID,1.40352,
2009-04-15, 02:06:05,VALID,999.416,VALID,0,VALID,90.1821,VALID,0,VALID,24.3861,VALID,283,VALID,1.55039,
2009-04-15, 02:07:05,VALID,999.386,VALID,0,VALID,90.3271,VALID,0,VALID,24.3861,VALID,310,VALID,1.49688,
2009-04-15, 02:08:05,VALID,999.368,VALID,0,VALID,90.5865,VALID,0,VALID,24.3452,VALID,277,VALID,0.728125,
2009-04-15, 02:09:05,VALID,999.326,VALID,0,VALID,90.7772,VALID,0,VALID,24.3275,VALID,249,VALID,1.23984,
2009-04-15, 02:10:05,VALID,999.341,VALID,0,VALID,91.0519,VALID,0,VALID,24.2885,VALID,265,VALID,0.526953,
2009-04-15, 02:11:05,VALID,999.378,VALID,0,VALID,91.4181,VALID,0,VALID,24.269,VALID,266,VALID,2.06797,
2009-04-15, 02:12:05,VALID,999.357,VALID,0,VALID,91.7157,VALID,0,VALID,24.2495,VALID,270,VALID,1.83477,
2009-04-15, 02:13:05,VALID,999.364,VALID,0,VALID,91.8301,VALID,0,VALID,24.2299,VALID,287,VALID,2.30078,
2009-04-15, 02:14:05,VALID,999.355,VALID,0,VALID,92.1658,VALID,0,VALID,24.2299,VALID,295,VALID,0.822266,
2009-04-15, 02:15:05,VALID,999.376,VALID,0,VALID,92.2345,VALID,0,VALID,24.1909,VALID,251,VALID,0.897266,
2009-04-15, 02:16:05,VALID,999.364,VALID,0,VALID,92.3108,VALID,0,VALID,24.1519,VALID,268,VALID,1.19531,
2009-04-15, 02:17:05,VALID,999.359,VALID,0,VALID,91.9064,VALID,0,VALID,24.0915,VALID,282,VALID,2.00781,
2009-04-15, 02:18:05,VALID,999.348,VALID,0,VALID,92.1582,VALID,0,VALID,24.1128,VALID,315,VALID,0.786719,
2009-04-15, 02:19:05,VALID,999.361,VALID,0,VALID,92.12,VALID,0,VALID,24.0738,VALID,309,VALID,1.44922,
2009-04-15, 02:20:05,VALID,999.409,VALID,0,VALID,92.3031,VALID,0,VALID,24.0738,VALID,248,VALID,0.91875,
2009-04-15, 02:21:05,VALID,999.401,VALID,0.5,VALID,92.4405,VALID,0,VALID,24.0348,VALID,266,VALID,0.507813,
2009-04-15, 02:22:05,VALID,999.428,VALID,0,VALID,92.5702,VALID,0,VALID,24.0153,VALID,263,VALID,1.24609,
2009-04-15, 02:23:05,VALID,999.421,VALID,0,VALID,92.7304,VALID,0,VALID,23.9957,VALID,267,VALID,1.70117,
2009-04-15, 02:24:05,VALID,999.399,VALID,0,VALID,92.7685,VALID,0,VALID,23.9744,VALID,261,VALID,1.95938,
2009-04-15, 02:25:05,VALID,999.376,VALID,0,VALID,92.7685,VALID,0,VALID,23.9762,VALID,259,VALID,2.35234,
2009-04-15, 02:26:05,VALID,999.397,VALID,0,VALID,92.8906,VALID,0,VALID,23.9567,VALID,275,VALID,1.11875,
2009-04-15, 02:27:05,VALID,999.341,VALID,0,VALID,92.8448,VALID,0,VALID,23.9372,VALID,271,VALID,2.00742,
2009-04-15, 02:28:05,VALID,999.348,VALID,0,VALID,92.8143,VALID,0,VALID,23.9177,VALID,260,VALID,1.90117,
2009-04-15, 02:29:05,VALID,999.317,VALID,0,VALID,92.9059,VALID,0,VALID,23.9372,VALID,279,VALID,0.453516,
2009-04-15, 02:30:05,VALID,999.308,VALID,0,VALID,92.9898,VALID,0,VALID,23.9177,VALID,235,VALID,0.822266,
2009-04-15, 02:31:05,VALID,999.333,VALID,0,VALID,93.028,VALID,0,VALID,23.9177,VALID,270,VALID,1.40859,
2009-04-15, 02:32:05,VALID,999.335,VALID,0,VALID,92.9974,VALID,0,VALID,23.9177,VALID,222,VALID,1.99531,
2009-04-15, 02:33:05,VALID,999.31,VALID,0,VALID,93.0585,VALID,0,VALID,23.9177,VALID,232,VALID,0.615625,
2009-04-15, 02:34:05,VALID,999.316,VALID,0,VALID,93.0432,VALID,0,VALID,23.9177,VALID,264,VALID,0.950391,
2009-04-15, 02:35:05,VALID,999.266,VALID,0.5,VALID,93.0585,VALID,0,VALID,23.8768,VALID,268,VALID,1.55742,
2009-04-15, 02:36:05,VALID,999.288,VALID,0,VALID,93.0966,VALID,0,VALID,23.8963,VALID,272,VALID,1.62227,
2009-04-15, 02:37:05,VALID,999.296,VALID,0,VALID,93.1805,VALID,0,VALID,23.8963,VALID,249,VALID,0.661328,
2009-04-15, 02:38:05,VALID,999.265,VALID,0,VALID,93.1653,VALID,0,VALID,23.9177,VALID,227,VALID,0.748828,
2009-04-15, 02:39:05,VALID,999.268,VALID,0,VALID,93.1043,VALID,0,VALID,23.8768,VALID,266,VALID,1.5707,
2009-04-15, 02:40:05,VALID,999.244,VALID,0,VALID,93.1348,VALID,0,VALID,23.8982,VALID,280,VALID,0.821875,
2009-04-15, 02:41:05,VALID,999.254,VALID,0,VALID,93.1653,VALID,0,VALID,23.8982,VALID,289,VALID,0.971875,
2009-04-15, 02:42:05,VALID,999.225,VALID,0,VALID,93.1424,VALID,0,VALID,23.8573,VALID,276,VALID,1.92617,
2009-04-15, 02:43:05,VALID,999.212,VALID,0,VALID,93.1729,VALID,0,VALID,23.8786,VALID,261,VALID,0.951172,
2009-04-15, 02:44:05,VALID,999.2,VALID,0,VALID,93.2111,VALID,0,VALID,23.8982,VALID,228,VALID,0.885547,
2009-04-15, 02:45:05,VALID,999.208,VALID,0,VALID,93.3026,VALID,0,VALID,23.8786,VALID,236,VALID,0.801562,
2009-04-15, 02:46:05,VALID,999.147,VALID,0,VALID,93.3331,VALID,0,VALID,23.8591,VALID,240,VALID,1.01055,
2009-04-15, 02:47:05,VALID,999.159,VALID,0,VALID,93.4018,VALID,0,VALID,23.8591,VALID,199,VALID,0.917969,
2009-04-15, 02:48:05,VALID,999.181,VALID,0,VALID,93.4018,VALID,0,VALID,23.8591,VALID,252,VALID,0.953516,
2009-04-15, 02:49:05,VALID,999.185,VALID,0,VALID,93.4247,VALID,0,VALID,23.8591,VALID,268,VALID,0.403906,
2009-04-15, 02:50:05,VALID,999.191,VALID,0,VALID,93.4552,VALID,0,VALID,23.8591,VALID,240,VALID,0.948047,
2009-04-15, 02:51:05,VALID,999.184,VALID,0,VALID,93.4781,VALID,0,VALID,23.8591,VALID,224,VALID,1.14609,
2009-04-15, 02:52:05,VALID,999.209,VALID,0,VALID,93.4476,VALID,0,VALID,23.8591,VALID,243,VALID,0.721875,
2009-04-15, 02:53:05,VALID,999.157,VALID,0,VALID,93.4705,VALID,0,VALID,23.8591,VALID,251,VALID,0.275781,
2009-04-15, 02:54:05,VALID,999.154,VALID,0,VALID,93.4857,VALID,0,VALID,23.8591,VALID,228,VALID,1.05586,
2009-04-15, 02:55:05,VALID,999.154,VALID,0,VALID,93.5315,VALID,0,VALID,23.8591,VALID,273,VALID,0.687109,
2009-04-15, 02:56:05,VALID,999.134,VALID,0,VALID,93.5163,VALID,0,VALID,23.8591,VALID,301,VALID,0.84375,
2009-04-15, 02:57:05,VALID,999.139,VALID,0,VALID,93.5391,VALID,0,VALID,23.8573,VALID,249,VALID,0.717578,
2009-04-15, 02:58:05,VALID,999.153,VALID,0,VALID,93.5544,VALID,0,VALID,23.8786,VALID,271,VALID,1.06875,
2009-04-15, 02:59:05,VALID,999.147,VALID,0,VALID,93.5849,VALID,0,VALID,23.8786,VALID,250,VALID,1.05234,
2009-04-15, 03:00:05,VALID,999.139,VALID,0,VALID,93.562,VALID,0,VALID,23.8982,VALID,233,VALID,0.950781,
2009-04-15, 03:01:05,VALID,999.136,VALID,0,VALID,93.5239,VALID,0,VALID,23.8982,VALID,215,VALID,0.752344,
2009-04-15, 03:02:05,VALID,999.148,VALID,0,VALID,93.5163,VALID,0,VALID,23.9177,VALID,296,VALID,0.939062,
2009-04-15, 03:03:05,VALID,999.156,VALID,0,VALID,93.501,VALID,0,VALID,23.8982,VALID,203,VALID,0.721875,
2009-04-15, 03:04:05,VALID,999.155,VALID,0,VALID,93.5544,VALID,0,VALID,23.9177,VALID,247,VALID,0.479297,
2009-04-15, 03:05:05,VALID,999.163,VALID,0,VALID,93.5239,VALID,0,VALID,23.8963,VALID,224,VALID,0.751172,
2009-04-15, 03:06:05,VALID,999.187,VALID,0,VALID,93.4934,VALID,0,VALID,23.8982,VALID,266,VALID,0.330859,
2009-04-15, 03:07:05,VALID,999.163,VALID,0,VALID,93.4857,VALID,0,VALID,23.9159,VALID,207,VALID,0.6625,
2009-04-15, 03:08:05,VALID,999.133,VALID,0,VALID,93.5163,VALID,0.112286,VALID,23.9159,VALID,193,VALID,0.728906,
2009-04-15, 03:09:05,VALID,999.127,VALID,0,VALID,93.4781,VALID,0,VALID,23.9159,VALID,209,VALID,0.255469,
2009-04-15, 03:10:05,VALID,999.105,VALID,0,VALID,93.5239,VALID,0,VALID,23.9354,VALID,212,VALID,0.583203,
2009-04-15, 03:11:05,VALID,999.102,VALID,0,VALID,93.4781,VALID,0,VALID,23.9159,VALID,224,VALID,1.33555,
2009-04-15, 03:12:05,VALID,999.064,VALID,0,VALID,93.4628,VALID,0,VALID,23.9549,VALID,238,VALID,1.44297,
2009-04-15, 03:13:05,VALID,999.043,VALID,0,VALID,93.3331,VALID,0,VALID,23.9336,VALID,224,VALID,0.871484,
2009-04-15, 03:14:05,VALID,999.016,VALID,0,VALID,93.2797,VALID,0,VALID,23.9549,VALID,210,VALID,0.723437,
2009-04-15, 03:15:05,VALID,998.966,VALID,0,VALID,93.2263,VALID,0,VALID,23.9531,VALID,211,VALID,0.725391,
2009-04-15, 03:16:05,VALID,998.971,VALID,0,VALID,93.0585,VALID,0,VALID,23.9939,VALID,207,VALID,0.770312,
2009-04-15, 03:17:05,VALID,998.932,VALID,0,VALID,92.9898,VALID,0,VALID,23.9921,VALID,178,VALID,0.992188,
2009-04-15, 03:18:05,VALID,998.919,VALID,0,VALID,92.883,VALID,0,VALID,24.0134,VALID,213,VALID,0.920313,
2009-04-15, 03:19:05,VALID,998.927,VALID,0,VALID,92.8372,VALID,0,VALID,24.0116,VALID,221,VALID,0.704297,
2009-04-15, 03:20:05,VALID,998.878,VALID,0,VALID,92.8754,VALID,0,VALID,24.0525,VALID,201,VALID,0.754297,
2009-04-15, 03:21:05,VALID,998.854,VALID,0,VALID,92.7609,VALID,0,VALID,24.0329,VALID,227,VALID,0.597266,
2009-04-15, 03:22:05,VALID,998.815,VALID,0,VALID,92.6388,VALID,0,VALID,24.0329,VALID,220,VALID,0.396094,
2009-04-15, 03:23:05,VALID,998.787,VALID,0,VALID,92.4634,VALID,0.112286,VALID,24.0329,VALID,187,VALID,0.917578,
2009-04-15, 03:24:05,VALID,998.766,VALID,0,VALID,92.2726,VALID,0,VALID,24.072,VALID,260,VALID,1.04258,
2009-04-15, 03:25:05,VALID,998.754,VALID,0,VALID,92.1582,VALID,0,VALID,24.0915,VALID,247,VALID,0.564062,
2009-04-15, 03:26:05,VALID,998.713,VALID,0,VALID,92.0743,VALID,0,VALID,24.111,VALID,179,VALID,0.748438,
2009-04-15, 03:27:05,VALID,998.747,VALID,0,VALID,92.0819,VALID,0,VALID,24.111,VALID,203,VALID,0.527344,
2009-04-15, 03:28:05,VALID,998.742,VALID,0,VALID,91.9522,VALID,0.112286,VALID,24.0915,VALID,207,VALID,0.583203,
2009-04-15, 03:29:05,VALID,998.7,VALID,0,VALID,91.9827,VALID,0,VALID,24.1092,VALID,178,VALID,0.666797,
2009-04-15, 03:30:05,VALID,998.731,VALID,0,VALID,91.9751,VALID,0,VALID,24.1305,VALID,188,VALID,0.261328,
2009-04-15, 03:31:05,VALID,998.691,VALID,0,VALID,91.7462,VALID,0,VALID,24.111,VALID,212,VALID,0.827734,
2009-04-15, 03:32:05,VALID,998.685,VALID,0,VALID,91.8683,VALID,0,VALID,24.1305,VALID,173,VALID,0.831641,
2009-04-15, 03:33:05,VALID,998.673,VALID,0,VALID,91.8301,VALID,0,VALID,24.15,VALID,173,VALID,0.738281,
2009-04-15, 03:34:05,VALID,998.636,VALID,0,VALID,91.914,VALID,0,VALID,24.1287,VALID,196,VALID,0.778125,
2009-04-15, 03:35:05,VALID,998.633,VALID,0,VALID,91.9064,VALID,0,VALID,24.15,VALID,198,VALID,0.454688,
2009-04-15, 03:36:05,VALID,998.63,VALID,0,VALID,91.8683,VALID,0,VALID,24.15,VALID,190,VALID,0.511328,
2009-04-15, 03:37:05,VALID,998.611,VALID,0,VALID,91.9751,VALID,0,VALID,24.15,VALID,172,VALID,0.610937,
2009-04-15, 03:38:05,VALID,998.58,VALID,0,VALID,91.9827,VALID,0,VALID,24.1324,VALID,204,VALID,0.780859,
2009-04-15, 03:39:05,VALID,998.584,VALID,0,VALID,91.9751,VALID,0,VALID,24.1324,VALID,163,VALID,0.886328,
2009-04-15, 03:40:05,VALID,998.544,VALID,0,VALID,92.0819,VALID,0,VALID,24.1128,VALID,166,VALID,0.775391,
2009-04-15, 03:41:05,VALID,998.549,VALID,0,VALID,92.1277,VALID,0,VALID,24.1128,VALID,156,VALID,0.846094,
2009-04-15, 03:42:04,VALID,998.55,VALID,0,VALID,92.2955,VALID,0,VALID,24.0933,VALID,165,VALID,0.810156,
2009-04-15, 03:43:04,VALID,998.547,VALID,0,VALID,92.4786,VALID,0,VALID,24.0933,VALID,179,VALID,0.535156,
2009-04-15, 03:44:04,VALID,998.562,VALID,0,VALID,92.4405,VALID,0,VALID,24.0543,VALID,147,VALID,0.676172,
2009-04-15, 03:45:04,VALID,998.553,VALID,0,VALID,92.4939,VALID,0,VALID,24.0543,VALID,147,VALID,0.699219,